This demonstration page uses our WeatherBlox Daily Observations layout. Learn more.

Left ArrowRight Arrow

39.51506, -84.39828

Hourly Observations for May 31, 2016

Temp ( °F °C ) Dew Point ( °F °C ) Humidity (%) Winds ( mph kmh ) Pressure ( in mb ) Visibility ( mi km ) Precip ( " mm )
12:35 am 00:35 Clear 67 19.3 58 14.4 73 73 N N/A 29.97 1015 10 16.0934 N/A
12:55 am 00:55 Clear 63 17.3 56 13.4 78 78 N N/A 29.97 1015 10 16.0934 N/A
1:15 am 01:15 Clear 64 17.6 57 13.8 79 79 N N/A 29.97 1015 10 16.0934 N/A
1:35 am 01:35 Clear 63 17.3 56 13.4 78 78 N N/A 29.97 1015 10 16.0934 N/A
1:55 am 01:55 Clear 63 17.3 56 13.5 79 79 N N/A 29.97 1015 10 16.0934 N/A
2:15 am 02:15 Clear 62 16.8 56 13.1 79 79 N N/A 29.97 1015 10 16.0934 N/A
2:35 am 02:35 Clear 62 16.6 55 13 79 79 N N/A 29.97 1015 10 16.0934 N/A
2:55 am 02:55 Partly Cloudy 62 16.6 56 13.1 80 80 N 3 6 29.97 1015 10 16.0934 N/A
3:15 am 03:15 Clear 62 16.6 56 13.1 80 80 N N/A 29.97 1015 10 16.0934 N/A
3:35 am 03:35 Mostly Cloudy 62 16.6 56 13.2 80 80 N N/A 29.97 1015 10 16.0934 N/A
3:55 am 03:55 Partly Cloudy 62 16.6 56 13.2 80 80 N N/A 29.97 1015 10 16.0934 N/A
4:15 am 04:15 Partly Cloudy 62 16.6 55 12.9 79 79 N N/A 29.97 1015 10 16.0934 N/A
4:35 am 04:35 Partly Cloudy 62 16.5 55 12.9 79 79 N N/A 29.97 1015 10 16.0934 N/A
4:55 am 04:55 Clear 61 16 55 12.6 80 80 N N/A 29.97 1015 10 16.0934 N/A
5:15 am 05:15 Clear 61 16 55 12.6 80 80 N N/A 29.97 1015 10 16.0934 N/A
5:35 am 05:35 Clear 60 15.3 54 12.1 81 81 N N/A 29.97 1015 10 16.0934 N/A
5:55 am 05:55 Clear 60 15.8 55 12.6 81 81 N N/A 29.97 1015 10 16.0934 N/A
6:15 am 06:15 Sunny 60 15.4 54 12.4 82 82 N N/A 29.97 1015 10 16.0934 N/A
6:35 am 06:35 Sunny 60 15.3 54 12.3 82 82 N N/A 29.97 1015 10 16.0934 N/A
6:55 am 06:55 Sunny 60 15.3 54 12.3 82 82 N N/A 29.97 1015 10 16.0934 N/A
7:15 am 07:15 Sunny 61 16.3 56 13.3 83 83 N N/A 29.97 1015 10 16.0934 N/A
7:35 am 07:35 Sunny 64 17.5 58 14.2 81 81 N N/A 30 1016 10 16.0934 N/A
7:55 am 07:55 Sunny 67 19.5 60 15.3 77 77 N N/A 30 1016 10 16.0934 N/A
8:15 am 08:15 Sunny 69 20.8 61 16.1 75 75 N N/A 30 1016 10 16.0934 N/A
8:35 am 08:35 Sunny 69 20.8 59 15.1 70 70 N N/A 30 1016 10 16.0934 N/A
8:55 am 08:55 Sunny 74 23.6 61 16.3 64 64 N N/A 30 1016 10 16.0934 N/A
9:15 am 09:15 Sunny 74 23.6 59 15 59 59 N N/A 30 1016 10 16.0934 N/A
9:35 am 09:35 Sunny 76 24.5 60 15.5 57 57 N N/A 30 1016 10 16.0934 N/A
9:55 am 09:55 Sunny 77 25.1 59 14.9 53 53 N N/A 30 1016 10 16.0934 N/A
10:15 am 10:15 Sunny 79 26.3 57 13.8 46 46 N N/A 30 1016 10 16.0934 N/A
10:35 am 10:35 Sunny 80 26.5 56 13.5 45 45 N N/A 30 1016 10 16.0934 N/A
10:55 am 10:55 Sunny 81 27.2 55 13 42 42 N N/A 30 1016 10 16.0934 N/A
11:15 am 11:15 Sunny 82 28 54 12.3 38 38 N N/A 30 1016 10 16.0934 N/A
11:35 am 11:35 Sunny 83 28.4 54 12.3 37 37 N N/A 29.97 1015 10 16.0934 N/A
11:55 am 11:55 Sunny 83 28.6 53 11.8 35 35 N N/A 29.97 1015 10 16.0934 N/A
12:15 pm 12:15 Sunny 85 29.2 53 11.5 33 33 SSW 3 6 29.97 1015 10 16.0934 N/A
12:35 pm 12:35 Sunny 87 30.7 56 13.3 34 34 WSW 3 6 29.94 1014 10 16.0934 N/A
12:55 pm 12:55 Sunny 88 31.2 53 11.8 30 30 SW 5 7 29.94 1014 10 16.0934 N/A
1:15 pm 13:15 Partly Cloudy 90 32 52 11 27 27 N N/A 29.94 1014 10 16.0934 N/A
1:35 pm 13:35 Mostly Cloudy 87 30.4 48 8.9 26 26 N N/A 29.94 1014 10 16.0934 N/A
1:55 pm 13:55 Mostly Cloudy 87 30.8 49 9.4 26 26 N N/A 29.94 1014 10 16.0934 N/A
2:15 pm 14:15 Mostly Cloudy 90 32.1 45 7 21 21 N N/A 29.94 1014 10 16.0934 N/A
2:35 pm 14:35 Partly Cloudy 90 32.1 47 8.1 22 22 N N/A 29.91 1013 10 16.0934 N/A
2:55 pm 14:55 Partly Cloudy 89 31.8 50 10.1 26 26 SW 3 6 29.91 1013 10 16.0934 N/A
3:15 pm 15:15 Partly Cloudy 90 32.1 47 8.1 22 22 SSW 6 9 29.91 1013 10 16.0934 N/A
3:35 pm 15:35 Sunny 90 32.1 48 9.1 24 24 S 5 7 29.91 1013 10 16.0934 N/A
3:55 pm 15:55 Sunny 90 32.1 41 5 18 18 N N/A 29.91 1013 10 16.0934 N/A
4:15 pm 16:15 Sunny 90 32.1 42 5.5 19 19 SE 6 9 29.91 1013 10 16.0934 N/A
4:35 pm 16:35 Sunny 90 32.1 42 5.6 19 19 SW 3 6 29.91 1013 10 16.0934 N/A
4:55 pm 16:55 Sunny 90 32.1 37 2.9 16 16 N N/A 29.91 1013 10 16.0934 N/A
5:15 pm 17:15 Partly Cloudy 90 32.1 40 4.7 18 18 N N/A 29.91 1013 10 16.0934 N/A
5:35 pm 17:35 Partly Cloudy 90 32.1 40 4.6 18 18 N N/A 29.91 1013 10 16.0934 N/A
5:55 pm 17:55 Partly Cloudy 90 32.1 43 6.3 20 20 N N/A 29.88 1012 10 16.0934 N/A
6:15 pm 18:15 Sunny 89 31.4 50 10.1 27 27 N 3 6 29.88 1012 10 16.0934 N/A
6:35 pm 18:35 Sunny 87 30.7 48 8.7 25 25 E 5 7 29.88 1012 10 16.0934 N/A
6:55 pm 18:55 Sunny 86 29.8 45 7.4 24 24 SE 8 13 29.88 1012 10 16.0934 N/A
7:15 pm 19:15 Sunny 85 29.2 47 8.5 27 27 SE 7 11 29.88 1012 10 16.0934 N/A
7:35 pm 19:35 Sunny 83 28.6 48 8.9 29 29 SE 6 9 29.88 1012 10 16.0934 N/A
8:15 pm 20:15 Sunny 83 28.1 51 10.8 34 34 SW 3 6 29.91 1013 10 16.0934 N/A
8:35 pm 20:35 Sunny 80 26.5 57 14 46 46 SSW 6 9 29.94 1014 10 16.0934 N/A
8:55 pm 20:55 Sunny 77 25.1 58 14.2 51 51 SSW 5 7 29.94 1014 10 16.0934 N/A
9:15 pm 21:15 Clear 77 25.1 60 15.4 55 55 N N/A 29.94 1014 10 16.0934 N/A
9:35 pm 21:35 Clear 74 23.6 64 17.6 69 69 N N/A 29.94 1014 10 16.0934 N/A
9:55 pm 21:55 Clear 74 23.4 64 17.8 71 71 NNW 3 6 29.94 1014 10 16.0934 N/A
10:15 pm 22:15 Mostly Cloudy 72 22.3 63 17 72 72 N N/A 29.94 1014 10 16.0934 N/A
10:35 pm 22:35 Mostly Cloudy 74 23.6 64 17.5 69 69 N N/A 29.97 1015 10 16.0934 N/A
10:55 pm 22:55 Partly Cloudy 73 22.5 63 17.2 72 72 N N/A 29.97 1015 10 16.0934 N/A
11:15 pm 23:15 Mostly Cloudy 72 22.3 62 16.5 70 70 N N/A 29.97 1015 10 16.0934 N/A
11:35 pm 23:35 Mostly Cloudy 71 21.6 61 16.3 72 72 NNW 3 6 29.97 1015 10 16.0934 N/A
11:55 pm 23:55 Mostly Cloudy 69 20.8 60 15.8 73 73 N N/A 29.97 1015 10 16.0934 N/A

Powered by AerisWeather